| time (UTC) | temp F | wind direction | speed MPH | gust MPH | rain 1hr in | rain 24hr in | rain mn in | humidity % | barometer mb |
| 20260505004656 | 61 | 155 | 0.0 | 1.0 | 0.00 | 0.00 | 0.00 | 76 | 1017.1 |
| 20260505004202 | 61 | 155 | 0.0 | 4.0 | 0.00 | 0.00 | 0.00 | 75 | 1017.1 |
| 20260505003659 | 61 | 153 | 3.0 | 4.0 | 0.00 | 0.00 | 0.00 | 76 | 1017.1 |
| 20260505003159 | 61 | 155 | 0.0 | 3.0 | 0.00 | 0.00 | 0.00 | 76 | 1017.1 |
| 20260505002700 | 61 | 140 | 0.0 | 4.0 | 0.00 | 0.00 | 0.00 | 76 | 1017.1 |
| 20260505002159 | 61 | 132 | 2.0 | 4.0 | 0.00 | 0.00 | 0.00 | 76 | 1017.1 |
| 20260505001657 | 61 | 107 | 2.0 | 5.0 | 0.00 | 0.00 | 0.00 | 76 | 1017.2 |
| 20260505001202 | 61 | 140 | 0.0 | 0.0 | 0.00 | 0.00 | 0.00 | 76 | 1017.2 |
| 20260505000659 | 61 | 180 | 0.0 | 5.0 | 0.00 | 0.00 | 0.00 | 76 | 1017.3 |
| 20260505000159 | 61 | 146 | 0.0 | 4.0 | 0.00 | 0.00 | 0.00 | 76 | 1017.4 |
| 20260504235656 | 61 | 159 | 2.0 | 5.0 | 0.00 | 0.00 | 0.00 | 76 | 1017.4 |
| 20260504235200 | 61 | 159 | 2.0 | 5.0 | 0.00 | 0.00 | 0.00 | 76 | 1017.6 |
| 20260504234700 | 61 | 124 | 0.0 | 3.0 | 0.00 | 0.00 | 0.00 | 76 | 1017.7 |
| 20260504234200 | 62 | 130 | 0.0 | 2.0 | 0.00 | 0.00 | 0.00 | 75 | 1017.7 |
| 20260504233656 | 62 | 130 | 0.0 | 3.0 | 0.00 | 0.00 | 0.00 | 75 | 1017.8 |
| 20260504233156 | 62 | 138 | 3.0 | 3.0 | 0.00 | 0.00 | 0.00 | 75 | 1017.9 |
| 20260504232656 | 62 | 120 | 0.0 | 0.0 | 0.00 | 0.00 | 0.00 | 75 | 1017.9 |
| 20260504232157 | 62 | 118 | 0.0 | 0.0 | 0.00 | 0.00 | 0.00 | 75 | 1017.9 |
| 20260504231657 | 62 | 118 | 0.0 | 2.0 | 0.00 | 0.00 | 0.00 | 75 | 1017.9 |
| 20260504231157 | 62 | 118 | 0.0 | 1.0 | 0.00 | 0.00 | 0.00 | 74 | 1017.9 |
| 20260504230700 | 62 | 118 | 0.0 | 0.0 | 0.00 | 0.00 | 0.00 | 74 | 1018.0 |
| 20260504230157 | 62 | 118 | 0.0 | 1.0 | 0.00 | 0.00 | 0.00 | 73 | 1018.0 |
| 20260504225657 | 63 | 118 | 0.0 | 4.0 | 0.00 | 0.00 | 0.00 | 73 | 1018.0 |
| 20260504225200 | 63 | 207 | 0.0 | 0.0 | 0.00 | 0.00 | 0.00 | 73 | 1018.0 |
| 20260504224656 | 62 | 207 | 0.0 | 0.0 | 0.00 | 0.00 | 0.00 | 73 | 1018.1 |
| 20260504224203 | 62 | 207 | 0.0 | 4.0 | 0.00 | 0.00 | 0.00 | 73 | 1018.2 |
| 20260504223700 | 62 | 138 | 0.0 | 0.0 | 0.00 | 0.00 | 0.00 | 74 | 1018.1 |
| 20260504223157 | 62 | 138 | 0.0 | 0.0 | 0.00 | 0.00 | 0.00 | 74 | 1018.1 |
| 20260504222657 | 62 | 138 | 0.0 | 0.0 | 0.00 | 0.00 | 0.00 | 74 | 1018.2 |
| 20260504222200 | 62 | 138 | 0.0 | 4.0 | 0.00 | 0.00 | 0.00 | 74 | 1018.2 |
| 20260504221700 | 62 | 165 | 4.0 | 5.0 | 0.00 | 0.00 | 0.00 | 74 | 1018.2 |
| 20260504221157 | 62 | 159 | 2.0 | 4.0 | 0.00 | 0.00 | 0.00 | 73 | 1018.2 |
| 20260504220700 | 62 | 127 | 0.0 | 1.0 | 0.00 | 0.00 | 0.00 | 73 | 1018.3 |
| 20260504220200 | 62 | 163 | 0.0 | 5.0 | 0.00 | 0.00 | 0.00 | 73 | 1018.4 |
| 20260504215703 | 62 | 148 | 0.0 | 4.0 | 0.00 | 0.00 | 0.00 | 73 | 1018.5 |
| 20260504215157 | 62 | 134 | 0.0 | 0.0 | 0.00 | 0.00 | 0.00 | 73 | 1018.6 |
| 20260504214657 | 62 | 206 | 0.0 | 0.0 | 0.00 | 0.00 | 0.00 | 72 | 1018.6 |
| 20260504214157 | 62 | 206 | 0.0 | 0.0 | 0.00 | 0.00 | 0.00 | 73 | 1018.6 |
| 20260504213657 | 62 | 171 | 0.0 | 0.0 | 0.00 | 0.00 | 0.00 | 74 | 1018.6 |
| 20260504213157 | 61 | 171 | 0.0 | 2.0 | 0.00 | 0.00 | 0.00 | 74 | 1018.6 |
| 20260504212657 | 61 | 171 | 0.0 | 4.0 | 0.00 | 0.00 | 0.00 | 75 | 1018.6 |
| 20260504212200 | 61 | 167 | 4.0 | 3.0 | 0.00 | 0.00 | 0.00 | 75 | 1018.5 |
| 20260504211700 | 61 | 166 | 2.0 | 5.0 | 0.00 | 0.00 | 0.00 | 75 | 1018.6 |
| 20260504211157 | 61 | 165 | 1.0 | 5.0 | 0.00 | 0.00 | 0.00 | 74 | 1018.6 |
| 20260504210700 | 61 | 111 | 1.0 | 3.0 | 0.00 | 0.00 | 0.00 | 74 | 1018.6 |
| 20260504210157 | 62 | 163 | 0.0 | 3.0 | 0.00 | 0.00 | 0.00 | 74 | 1018.6 |
| 20260504205700 | 62 | 163 | 0.0 | 3.0 | 0.00 | 0.00 | 0.00 | 74 | 1018.6 |
| 20260504205157 | 62 | 163 | 1.0 | 4.0 | 0.00 | 0.00 | 0.00 | 74 | 1018.5 |
| 20260504204657 | 62 | 140 | 0.0 | 2.0 | 0.00 | 0.00 | 0.00 | 74 | 1018.5 |
| 20260504204157 | 62 | 131 | 0.0 | 4.0 | 0.00 | 0.00 | 0.00 | 74 | 1018.5 |
| 20260504203704 | 62 | 164 | 0.0 | 5.0 | 0.00 | 0.00 | 0.00 | 73 | 1018.5 |
| 20260504203200 | 62 | 150 | 0.0 | 5.0 | 0.00 | 0.00 | 0.00 | 73 | 1018.6 |
| 20260504202657 | 62 | 159 | 0.0 | 5.0 | 0.00 | 0.00 | 0.00 | 72 | 1018.8 |
| 20260504202157 | 63 | 134 | 0.0 | 1.0 | 0.00 | 0.00 | 0.00 | 72 | 1018.9 |
| 20260504201657 | 63 | 171 | 0.0 | 2.0 | 0.00 | 0.00 | 0.00 | 72 | 1018.9 |
| 20260504201157 | 63 | 109 | 0.0 | 1.0 | 0.00 | 0.00 | 0.00 | 72 | 1019.0 |
| 20260504200657 | 63 | 109 | 0.0 | 1.0 | 0.00 | 0.00 | 0.00 | 72 | 1018.8 |
| 20260504200200 | 63 | 109 | 0.0 | 0.0 | 0.00 | 0.00 | 0.00 | 72 | 1018.8 |
| 20260504195657 | 63 | 109 | 0.0 | 3.0 | 0.00 | 0.00 | 0.00 | 72 | 1018.7 |
| 20260504195157 | 63 | 134 | 1.0 | 4.0 | 0.00 | 0.00 | 0.00 | 71 | 1018.7 |
| 20260504194657 | 64 | 147 | 2.0 | 4.0 | 0.00 | 0.00 | 0.00 | 69 | 1018.7 |
| 20260504194200 | 64 | 147 | 0.0 | 0.0 | 0.00 | 0.00 | 0.00 | 69 | 1018.6 |
| 20260504193703 | 64 | 221 | 0.0 | 1.0 | 0.00 | 0.00 | 0.00 | 68 | 1018.7 |
| 20260504193157 | 64 | 221 | 0.0 | 0.0 | 0.00 | 0.00 | 0.00 | 68 | 1018.7 |
| 20260504192703 | 64 | 249 | 0.0 | 0.0 | 0.00 | 0.00 | 0.00 | 69 | 1018.6 |
| 20260504192200 | 64 | 159 | 0.0 | 0.0 | 0.00 | 0.00 | 0.00 | 69 | 1018.5 |
| 20260504191657 | 64 | 159 | 0.0 | 0.0 | 0.00 | 0.00 | 0.00 | 70 | 1018.4 |
| 20260504191200 | 64 | 159 | 0.0 | 0.0 | 0.00 | 0.00 | 0.00 | 70 | 1018.4 |
| 20260504190703 | 64 | 159 | 0.0 | 5.0 | 0.00 | 0.00 | 0.00 | 70 | 1018.4 |
| 20260504190157 | 64 | 160 | 0.0 | 3.0 | 0.00 | 0.00 | 0.00 | 70 | 1018.4 |
| 20260504185658 | 64 | 140 | 0.0 | 4.0 | 0.00 | 0.00 | 0.00 | 69 | 1018.3 |
| 20260504185157 | 65 | 150 | 1.0 | 3.0 | 0.00 | 0.00 | 0.00 | 69 | 1018.3 |
| 20260504184700 | 65 | 143 | 0.0 | 3.0 | 0.00 | 0.00 | 0.00 | 70 | 1018.3 |
| 20260504184203 | 65 | 106 | 0.0 | 1.0 | 0.00 | 0.00 | 0.00 | 70 | 1018.3 |
| 20260504183657 | 65 | 106 | 0.0 | 1.0 | 0.00 | 0.00 | 0.00 | 71 | 1018.3 |
| 20260504183158 | 65 | 106 | 0.0 | 2.0 | 0.00 | 0.00 | 0.00 | 73 | 1018.3 |
| 20260504182703 | 65 | 106 | 1.0 | 4.0 | 0.00 | 0.00 | 0.00 | 72 | 1018.3 |
| 20260504182157 | 65 | 106 | 0.0 | 3.0 | 0.00 | 0.00 | 0.00 | 71 | 1018.2 |
| 20260504181657 | 66 | 118 | 2.0 | 3.0 | 0.00 | 0.00 | 0.00 | 71 | 1018.2 |
| 20260504181200 | 66 | 96 | 0.0 | 3.0 | 0.00 | 0.00 | 0.00 | 70 | 1018.2 |
| 20260504180657 | 66 | 110 | 0.0 | 5.0 | 0.00 | 0.00 | 0.00 | 69 | 1018.2 |
| 20260504180204 | 66 | 103 | 1.0 | 5.0 | 0.00 | 0.00 | 0.00 | 67 | 1018.2 |
| 20260504175657 | 66 | 42 | 1.0 | 5.0 | 0.00 | 0.00 | 0.00 | 66 | 1018.2 |
| 20260504175200 | 66 | 50 | 5.0 | 6.0 | 0.00 | 0.00 | 0.00 | 63 | 1018.2 |
| 20260504174700 | 66 | 25 | 2.0 | 4.0 | 0.00 | 0.00 | 0.00 | 60 | 1018.2 |
| 20260504174157 | 66 | 329 | 4.0 | 5.0 | 0.00 | 0.00 | 0.00 | 59 | 1018.2 |
| 20260504173658 | 67 | 355 | 2.0 | 5.0 | 0.00 | 0.00 | 0.00 | 56 | 1018.1 |
| 20260504173200 | 67 | 25 | 5.0 | 6.0 | 0.00 | 0.00 | 0.00 | 54 | 1018.1 |
| 20260504172657 | 67 | 11 | 1.0 | 6.0 | 0.00 | 0.00 | 0.00 | 55 | 1018.1 |
| 20260504172200 | 67 | 355 | 2.0 | 6.0 | 0.00 | 0.00 | 0.00 | 57 | 1018.0 |
| 20260504171657 | 68 | 38 | 2.0 | 9.0 | 0.00 | 0.00 | 0.00 | 55 | 1018.0 |
| 20260504171157 | 68 | 38 | 3.0 | 8.0 | 0.00 | 0.00 | 0.00 | 51 | 1017.9 |
| 20260504170700 | 68 | 31 | 1.0 | 7.0 | 0.00 | 0.00 | 0.00 | 52 | 1017.8 |
| 20260504170200 | 68 | 20 | 1.0 | 6.0 | 0.00 | 0.00 | 0.00 | 54 | 1017.8 |
| 20260504160157 | 69 | 44 | 7.0 | 8.0 | 0.00 | 0.00 | 0.00 | 50 | 1017.7 |
| 20260504150657 | 70 | 33 | 6.0 | 7.0 | 0.00 | 0.00 | 0.00 | 53 | 1017.9 |
| 20260504150200 | 70 | 306 | 5.0 | 9.0 | 0.00 | 0.00 | 0.00 | 53 | 1018.0 |
| 20260504141200 | 71 | 333 | 6.0 | 9.0 | 0.00 | 0.00 | 0.00 | 52 | 1018.2 |
| 20260504140701 | 71 | 15 | 5.0 | 12.0 | 0.00 | 0.00 | 0.00 | 51 | 1018.2 |
| 20260504140203 | 70 | 319 | 5.0 | 9.0 | 0.00 | 0.00 | 0.00 | 52 | 1018.3 |
| 20260504130700 | 70 | 355 | 1.0 | 9.0 | 0.00 | 0.00 | 0.00 | 48 | 1019.0 |
| 20260504130157 | 71 | 5 | 4.0 | 8.0 | 0.00 | 0.00 | 0.00 | 47 | 1019.0 |
| 20260504120133 | 71 | 59 | 7.0 | 10.0 | 0.00 | 0.00 | 0.00 | 39 | 1019.2 |
| 20260504110626 | 71 | 339 | 3.0 | 9.0 | 0.00 | 0.00 | 0.00 | 50 | 1019.5 |
| 20260504110129 | 71 | 306 | 6.0 | 9.0 | 0.00 | 0.00 | 0.00 | 49 | 1019.5 |
| 20260504100129 | 70 | 118 | 4.0 | 9.0 | 0.00 | 0.00 | 0.00 | 53 | 1020.3 |
| 20260504090126 | 70 | 32 | 8.0 | 12.0 | 0.00 | 0.00 | 0.00 | 42 | 1020.1 |
| 20260504081626 | 70 | 273 | 2.0 | 7.0 | 0.00 | 0.00 | 0.00 | 54 | 1020.2 |
| 20260504081132 | 69 | 323 | 6.0 | 6.0 | 0.00 | 0.00 | 0.00 | 54 | 1020.1 |
| 20260504080626 | 69 | 293 | 3.0 | 5.0 | 0.00 | 0.00 | 0.00 | 55 | 1020.2 |
| 20260504080129 | 69 | 322 | 1.0 | 6.0 | 0.00 | 0.00 | 0.00 | 54 | 1020.1 |
| 20260504070126 | 67 | 296 | 0.0 | 1.0 | 0.00 | 0.00 | 0.00 | 42 | 1020.5 |
| 20260504060130 | 60 | 176 | 0.0 | 0.0 | 0.00 | 0.00 | 0.00 | 57 | 1020.3 |
| 20260504050630 | 56 | 119 | 0.0 | 2.0 | 0.00 | 0.00 | 0.00 | 59 | 1019.9 |
| 20260504050130 | 56 | 192 | 1.0 | 4.0 | 0.00 | 0.00 | 0.00 | 58 | 1019.9 |
| 20260504045627 | 56 | 215 | 4.0 | 7.0 | 0.00 | 0.00 | 0.00 | 58 | 1019.8 |
| 20260504045130 | 56 | 158 | 2.0 | 6.0 | 0.00 | 0.00 | 0.00 | 58 | 1019.8 |
| 20260504044627 | 56 | 144 | 3.0 | 5.0 | 0.00 | 0.00 | 0.00 | 58 | 1019.8 |
| 20260504044127 | 56 | 145 | 3.0 | 4.0 | 0.00 | 0.00 | 0.00 | 58 | 1019.8 |
| 20260504043633 | 56 | 175 | 4.0 | 4.0 | 0.00 | 0.00 | 0.00 | 58 | 1019.7 |
| 20260504043127 | 56 | 207 | 1.0 | 6.0 | 0.00 | 0.00 | 0.00 | 59 | 1019.7 |
| 20260504042633 | 55 | 154 | 1.0 | 6.0 | 0.00 | 0.00 | 0.00 | 59 | 1019.7 |
| 20260504042130 | 55 | 178 | 0.0 | 6.0 | 0.00 | 0.00 | 0.00 | 59 | 1019.6 |
| 20260504041630 | 55 | 114 | 2.0 | 4.0 | 0.00 | 0.00 | 0.00 | 59 | 1019.6 |
| 20260504041127 | 55 | 165 | 0.0 | 3.0 | 0.00 | 0.00 | 0.00 | 59 | 1019.6 |
| 20260504040627 | 55 | 185 | 2.0 | 5.0 | 0.00 | 0.00 | 0.00 | 59 | 1019.6 |
| 20260504040127 | 55 | 149 | 1.0 | 6.0 | 0.00 | 0.00 | 0.00 | 59 | 1019.5 |
| 20260504035627 | 55 | 141 | 0.0 | 6.0 | 0.00 | 0.00 | 0.00 | 59 | 1019.4 |
| 20260504035127 | 55 | 157 | 2.0 | 7.0 | 0.00 | 0.00 | 0.00 | 59 | 1019.5 |
| 20260504034633 | 55 | 162 | 3.0 | 5.0 | 0.00 | 0.00 | 0.00 | 59 | 1019.5 |
| 20260504034128 | 55 | 140 | 5.0 | 6.0 | 0.00 | 0.00 | 0.00 | 59 | 1019.5 |
| 20260504033627 | 55 | 149 | 1.0 | 5.0 | 0.00 | 0.00 | 0.00 | 59 | 1019.5 |
| 20260504033127 | 55 | 138 | 4.0 | 5.0 | 0.00 | 0.00 | 0.00 | 59 | 1019.6 |
| 20260504032634 | 55 | 144 | 3.0 | 6.0 | 0.00 | 0.00 | 0.00 | 59 | 1019.6 |
| 20260504032133 | 55 | 156 | 2.0 | 6.0 | 0.00 | 0.00 | 0.00 | 59 | 1019.5 |
| 20260504031630 | 55 | 147 | 1.0 | 7.0 | 0.00 | 0.00 | 0.00 | 59 | 1019.6 |
| 20260504031127 | 55 | 148 | 3.0 | 5.0 | 0.00 | 0.00 | 0.00 | 59 | 1019.6 |
| 20260504030627 | 55 | 128 | 4.0 | 8.0 | 0.00 | 0.00 | 0.00 | 60 | 1019.6 |
| 20260504030127 | 55 | 161 | 3.0 | 6.0 | 0.00 | 0.00 | 0.00 | 60 | 1019.6 |
| 20260504025630 | 55 | 126 | 5.0 | 7.0 | 0.00 | 0.00 | 0.00 | 60 | 1019.7 |
| 20260504025127 | 55 | 166 | 0.0 | 5.0 | 0.00 | 0.00 | 0.00 | 60 | 1019.7 |
| 20260504024636 | 55 | 155 | 0.0 | 7.0 | 0.00 | 0.00 | 0.00 | 60 | 1019.7 |
| 20260504024130 | 55 | 167 | 0.0 | 7.0 | 0.00 | 0.00 | 0.00 | 60 | 1019.8 |
| 20260504023628 | 55 | 156 | 0.0 | 7.0 | 0.00 | 0.00 | 0.00 | 60 | 1019.8 |
| 20260504023127 | 55 | 154 | 1.0 | 6.0 | 0.00 | 0.00 | 0.00 | 60 | 1019.8 |
| 20260504022627 | 55 | 168 | 2.0 | 7.0 | 0.00 | 0.00 | 0.00 | 60 | 1019.8 |
| 20260504022127 | 55 | 130 | 3.0 | 5.0 | 0.00 | 0.00 | 0.00 | 60 | 1019.8 |
| 20260504021627 | 55 | 170 | 0.0 | 5.0 | 0.00 | 0.00 | 0.00 | 60 | 1019.8 |
| 20260504021130 | 55 | 125 | 1.0 | 4.0 | 0.00 | 0.00 | 0.00 | 60 | 1019.8 |
| 20260504020630 | 55 | 148 | 3.0 | 5.0 | 0.00 | 0.00 | 0.00 | 60 | 1019.7 |
| 20260504020125 | 55 | 166 | 1.0 | 4.0 | 0.00 | 0.00 | 0.00 | 60 | 1019.7 |
| 20260504015631 | 55 | 114 | 3.0 | 5.0 | 0.00 | 0.00 | 0.00 | 60 | 1019.6 |
| 20260504015124 | 55 | 162 | 3.0 | 5.0 | 0.00 | 0.00 | 0.00 | 60 | 1019.6 |
| 20260504014625 | 55 | 190 | 3.0 | 5.0 | 0.00 | 0.00 | 0.00 | 60 | 1019.5 |
| 20260504014128 | 55 | 164 | 1.0 | 5.0 | 0.00 | 0.00 | 0.00 | 60 | 1019.5 |
| 20260504013625 | 55 | 159 | 1.0 | 6.0 | 0.00 | 0.00 | 0.00 | 60 | 1019.4 |
| 20260504013131 | 55 | 176 | 0.0 | 5.0 | 0.00 | 0.00 | 0.00 | 60 | 1019.4 |
| 20260504012628 | 56 | 157 | 2.0 | 6.0 | 0.00 | 0.00 | 0.00 | 60 | 1019.4 |
| 20260504012125 | 56 | 137 | 3.0 | 4.0 | 0.00 | 0.00 | 0.00 | 60 | 1019.4 |
| 20260504011625 | 56 | 120 | 0.0 | 6.0 | 0.00 | 0.00 | 0.00 | 60 | 1019.5 |
| 20260504011125 | 56 | 140 | 6.0 | 7.0 | 0.00 | 0.00 | 0.00 | 60 | 1019.5 |
| 20260504010625 | 56 | 152 | 0.0 | 8.0 | 0.00 | 0.00 | 0.00 | 60 | 1019.6 |
| 20260504010128 | 55 | 143 | 0.0 | 8.0 | 0.00 | 0.00 | 0.00 | 60 | 1019.7 |
| 20260504005628 | 55 | 136 | 5.0 | 7.0 | 0.00 | 0.00 | 0.00 | 60 | 1019.7 |
| 20260504005125 | 55 | 156 | 0.0 | 6.0 | 0.00 | 0.00 | 0.00 | 60 | 1019.8 |